Regional Weather Roundup
Issued by NWS

Home | Current Version | Previous Version | Graphics & Text | Print | Product List | Glossary Off
Versions: 1 2 3 4 5 6 7 8 9 10 11 12 13 14 15 16 17 18 19 20 21 22 23 24 25 26 27 28 29 30 31 32 33 34 35 36 37 38 39 40 41 42 43 44 45 46 47 48 49 50

000
ASUS45 KPSR 200610
RWRAZ

ARIZONA REGIONAL HOURLY WEATHER ROUNDUP
NATIONAL WEATHER SERVICE PHOENIX AZ
1100 PM MST FRI DEC 19 2014

NOTE: FAIR INDICATES FEW OR NO CLOUDS BELOW 12,000 FEET WITH NO
SIGNIFICANT WEATHER AND/OR OBSTRUCTIONS TO VISIBILITY.

AZZ001>003-036-200700-
NORTHWEST ARIZONA

CITY           SKY/WX    TMP DP  RH WIND       PRES   REMARKS
BULLHEAD CITY  MOCLDY    54  41  62 E7        30.18S
KINGMAN        CLOUDY    41  34  76 W5        30.17S
6HR MIN TEMP:  39; 6HR MAX TEMP:  50;

$$

AZZ004>008-015-016-018-200700-
NORTH CENTRAL ARIZONA

CITY           SKY/WX    TMP DP  RH WIND       PRES   REMARKS
GRAND CANYON   CLOUDY    26  24  92 CALM      30.21S
6HR MIN TEMP:  24; 6HR MAX TEMP:  39;

PRESCOTT       CLOUDY    35  27  72 S7        30.19F WCI  29
6HR MIN TEMP:  33; 6HR MAX TEMP:  47;

FLAGSTAFF      CLOUDY    26  23  88 CALM      30.21R
6HR MIN TEMP:  26; 6HR MAX TEMP:  37;

PAYSON         CLEAR     37  27  65 E5        30.19F WCI  34
PAGE           CLOUDY    38  29  70 SW5       30.21S WCI  34
6HR MIN TEMP:  37; 6HR MAX TEMP:  43;

$$

AZZ009>014-017-200700-
NORTHEAST ARIZONA

CITY           SKY/WX    TMP DP  RH WIND       PRES   REMARKS
WINSLOW        CLEAR     27  24  89 SE5       30.24R WCI  22
6HR MIN TEMP:  26; 6HR MAX TEMP:  40;

SAINT JOHNS    CLEAR     27  25  92 SE5       30.20F WCI  22
6HR MIN TEMP:  26; 6HR MAX TEMP:  39;

WINDOW ROCK    CLEAR     26  22  84 CALM      30.20S
6HR MIN TEMP:  25; 6HR MAX TEMP:  34;

SHOW LOW       CLEAR     23  21  93 CALM      30.22S
$$

AZZ023-200700-
GREATER PHOENIX AREA

CITY           SKY/WX    TMP DP  RH WIND       PRES   REMARKS
PHOENIX        MOCLDY    52  42  69 E7        30.12S
6HR MIN TEMP:  52; 6HR MAX TEMP:  63;

BUCKEYE          N/A     48  46  93 N6        30.15R
LUKE AFB       MOCLDY    48  42  81 N9        30.13S
6HR MIN TEMP:  47; 6HR MAX TEMP:  62;

DEER VALLEY    MOCLDY    49  40  71 VRB3      30.13S
6HR MIN TEMP:  46; 6HR MAX TEMP:  60;

SCOTTSDALE     MOCLDY    48  40  73 CALM      30.14S
6HR MIN TEMP:  48; 6HR MAX TEMP:  61;

MESA-GATEWAY   PTCLDY    43  39  87 NE3       30.15F
$$

AZZ027-028-200700-
SOUTHWEST MARICOPA COUNTY AND PINAL COUNTY

CITY           SKY/WX    TMP DP  RH WIND       PRES   REMARKS
CASA GRANDE    PTCLDY    46  39  76 CALM      30.14F
6HR MIN TEMP:  45; 6HR MAX TEMP:  59;

GILA BEND      FAIR      48  42  78 S5        30.16R
6HR MIN TEMP:  48; 6HR MAX TEMP:  62;

$$

AZZ503-504-507>509-200700-
SOUTHEAST ARIZONA

CITY           SKY/WX    TMP DP  RH WIND       PRES   REMARKS
TUCSON         CLEAR     45  39  79 S3        30.18S
6HR MIN TEMP:  44; 6HR MAX TEMP:  59;

DAVIS-MONTHAN  PTCLDY    42  40  90 SE7       30.16R
6HR MIN TEMP:  42; 6HR MAX TEMP:  57;

NOGALES        CLEAR     37  30  75 CALM      30.16R
6HR MIN TEMP:  37; 6HR MAX TEMP:  55;

SIERRA VISTA   CLEAR     37  28  70 W3        30.18S
DOUGLAS        CLEAR     31  29  92 N9        30.18S WCI  23
6HR MIN TEMP:  29; 6HR MAX TEMP:  52;

SAFFORD        CLEAR     37  34  89 E5        30.18S WCI  33
6HR MIN TEMP:  37; 6HR MAX TEMP:  50;

$$

AZZ020-021-025-026-031-200700-
SOUTHWEST ARIZONA

CITY           SKY/WX    TMP DP  RH WIND       PRES   REMARKS
YUMA           PTCLDY   N/A N/A N/A CALM      30.14S

$$

CAZ031-033-041-043-047-048-061-200700-
SOUTHERN CALIFORNIA

CITY           SKY/WX    TMP DP  RH WIND       PRES   REMARKS
DOWNTOWN L.A.  MOCLDY    56  48  74 CALM      30.18R
6HR MIN TEMP:  56; 6HR MAX TEMP:  61;

L.A. AIRPORT   MOCLDY    58  49  72 NW5       30.19R
6HR MIN TEMP:  58; 6HR MAX TEMP:  60;

SAN DIEGO      CLOUDY    59  52  77 CALM      30.19S
6HR MIN TEMP:  59; 6HR MAX TEMP:  63;

BURBANK        PTCLDY    53  47  79 W6        30.18R
6HR MIN TEMP:  53; 6HR MAX TEMP:  62;

ONTARIO        MOCLDY    54  47  77 E3        30.18R
6HR MIN TEMP:  54; 6HR MAX TEMP:  62;

RIVERSIDE      MOCLDY    52  47  83 SE3       30.19R
6HR MIN TEMP:  52; 6HR MAX TEMP:  62;

PALM SPRINGS   CLEAR     55  43  63 NW3       30.18R
6HR MIN TEMP:  54; 6HR MAX TEMP:  64;

EL CENTRO NAS  PTCLDY    50  43  77 W3        30.14S
6HR MIN TEMP:  49; 6HR MAX TEMP:  66;

IMPERIAL       PTCLDY    49  43  80 W5        30.14S
6HR MIN TEMP:  49; 6HR MAX TEMP:  65;

BLYTHE         PTCLDY    53  46  77 SW5       30.14F
6HR MIN TEMP:  52; 6HR MAX TEMP:  62;

NEEDLES        MOCLDY    51  42  71 W3        30.16S
6HR MIN TEMP:  51; 6HR MAX TEMP:  60;

$$

NVZ020-UTZ003-200700-
SOUTHERN NEVADA-UTAH

CITY           SKY/WX    TMP DP  RH WIND       PRES   REMARKS
LAS VEGAS      PTCLDY    50  39  66 SW8       30.15R
6HR MIN TEMP:  49; 6HR MAX TEMP:  53;

SALT LAKE CITY CLOUDY    41  30  65 N3        30.15R
6HR MIN TEMP:  40; 6HR MAX TEMP:  44;

$$

NMZ009-TXZ055-200700-
NEW MEXICO-WEST TEXAS

CITY           SKY/WX    TMP DP  RH WIND       PRES   REMARKS
ALBUQUERQUE    PTCLDY    34  24  67 N7        30.21R WCI  28
6HR MIN TEMP:  34; 6HR MAX TEMP:  41;

EL PASO        PTCLDY    36  27  69 NE5       30.17S WCI  32
6HR MIN TEMP:  35; 6HR MAX TEMP:  52;

$$


........................KEY........................
SKY/WX - SKY CONDITION/WEATHER
TMP    - TEMPERATURE IN FAHRENHEIT
DP     - DEW POINT IN FAHRENHEIT
RH     - RELATIVE HUMIDITY IN PERCENT
WIND   - DIRECTION AND SPEED IN MILES PER HOUR (MPH)
VRB    - VARIABLE WIND DIRECTION
PRES   - MEAN SEA LEVEL PRESSURE IN INCHES OF MERCURY
         F - FALLING PRESSURE   R - RISING PRESSURE
         S - STEADY PRESSURE
VSB    - VISIBILITY IN MILES
HX     - HEAT INDEX IN FAHRENHEIT
WCI    - WIND CHILL INDEX IN FAHRENHEIT
TC     - TEMPERATURE IN CELSIUS WHICH IS ALSO KNOWN AS
         TEMPERATURE IN CENTIGRADE
AFB    - AIR FORCE BASE
         LUKE AFB IS LUKE AIR FORCE BASE
         DAVIS-MONTHAN IS DAVIS-MONTHAN AIR FORCE BASE
NAS    - NAVAL AIR STATION
         EL CENTRO NAS IS EL CENTRO NAVAL AIR STATION
N/A    - NOT AVAILABLE



USA.gov is the U.S. government's official web portal to all federal, state and local government web resources and services.